GPS III SV05

operational
NORAD ID: 48859 Int'l Des: 2021-054 Owner: SMC Country: US Constellation: GPS
MEOCIRCULARGNSS

GPS III SV05について

説明を読み込み中...

リアルタイム位置

3D地球を読み込み中...

次回通過

高度履歴

Altitude vs Time

uPlot chart will show altitude changes over time

軌道要素

1 48859U 21054A 25342.17676416 -.00000086 00000-0 00000+0 0 9994
2 48859 55.2581 340.1367 0024681 233.3965 212.8622 2.00553628 32928
Epoch: Dec 8, 2025 • Age: 132 hours

現在のステータス

高度 20239.0 km
速度 3.87 km/s
衛星直下点 54.77°N, 115.2°E
打ち上げ日 Jun 17, 2021
運用期間 4.4 years
タイプ navigation

技術仕様

分類 Payload
質量 4400.00 kg
乾燥質量 2160.00 kg
総質量 4400.00 kg
長さ 3.40 m
直径 1.80 m
スパン 14.00 m
形状 Box + 2 pan
製造者 LMSSD
バスタイプ A2100
フェーズステータス In Orbit
所有者/国 SMC/US

大規模コンステレーション

Loading constellations...